Left ArrowRight Arrow

Hourly Observations for September 9, 2016

Temp ( °F °C ) Dew Point ( °F °C ) Humidity (%) Winds ( mph kmh ) Pressure ( in mb ) Visibility ( mi km ) Precip ( " mm )
12:46 am 00:46 Mostly Cloudy 46 7.8 45 7.2 96 96 Calm 30.27 1025 10 16 0.00 0.00
12:53 am 00:53 Mostly Cloudy 45 7.2 44 6.7 97 97 N 3 6 30.27 1025 10 16 0.00 0.00
12:58 am 00:58 Mostly Cloudy 45 7 45 7 100 100 N 3 6 30.30 1026 10 16 0.00 0.00
1:33 am 01:33 Partly Cloudy 45 7.2 44 6.7 97 97 Calm 30.30 1026 10 16 0.00 0.00
1:53 am 01:53 Clear 44 6.7 43 6.1 96 96 WSW 3 6 30.28 1025 10 16 0.00 0.00
2:17 am 02:17 Clear with Mist and Fog 43 6.1 43 6.1 100 100 Calm 30.30 1026 2 3 0.00 0.00
2:25 am 02:25 Clear with Mist and Fog 43 6.1 43 6.1 100 100 N 3 6 30.30 1026 2 3 0.00 0.00
2:29 am 02:29 Mostly Clear with Mist and Fog 43 6.1 43 6.1 100 100 N 3 6 30.33 1027 4 6 0.00 0.00
2:37 am 02:37 Mostly Cloudy 42 5.6 42 5.6 100 100 N 5 7 30.36 1028 10 16 0.00 0.00
2:50 am 02:50 Mostly Cloudy 45 7 43 6 93 93 N 3 6 30.33 1027 10 16 0.00 0.00
2:53 am 02:53 Cloudy 44 6.7 43 6.1 96 96 N 3 6 30.29 1026 10 16 0.00 0.00
3:07 am 03:07 Cloudy 45 7.2 44 6.7 97 97 N 5 7 30.33 1027 10 16 0.00 0.00
3:34 am 03:34 Cloudy 45 7 43 6 93 93 undefined N/A 30.33 1027 10 16 0.00 0.00
3:53 am 03:53 Cloudy 45 7.2 44 6.7 97 97 undefined N/A 30.30 1026 10 16 0.00 0.00
4:30 am 04:30 Cloudy 45 7 43 6 93 93 W 5 7 30.36 1028 10 16 0.00 0.00
4:51 am 04:51 Cloudy 43 6 43 6 100 100 NW 6 9 30.36 1028 10 16 0.00 0.00
4:53 am 04:53 Cloudy 43 6.1 43 6.1 100 100 NW 5 7 30.33 1027 10 16 0.00 0.00
5:23 am 05:23 Cloudy 43 6.1 43 6.1 100 100 NW 5 7 30.36 1028 10 16 0.00 0.00
5:46 am 05:46 Cloudy 43 6 43 6 100 100 WNW 6 9 30.42 1030 8 13 0.00 0.00
5:53 am 05:53 Cloudy with Mist and Fog 43 6.1 43 6.1 100 100 WNW 7 11 30.35 1028 3 5 0.00 0.00
6:41 am 06:41 Cloudy 43 6.1 43 6.1 100 100 NNW 5 7 30.42 1030 10 16 0.00 0.00
6:49 am 06:49 Cloudy 43 6 43 6 100 100 NNW 5 7 30.42 1030 10 16 0.00 0.00
6:53 am 06:53 Cloudy 43 6.1 43 6.1 100 100 NW 5 7 30.37 1028 10 16 0.00 0.00
7:34 am 07:34 Cloudy 43 6 43 6 100 100 undefined N/A 30.42 1030 10 16 0.00 0.00
7:43 am 07:43 Cloudy 43 6.1 43 6.1 100 100 undefined N/A 30.42 1030 10 16 0.00 0.00
7:53 am 07:53 Cloudy 43 6.1 43 6.1 100 100 undefined N/A 30.40 1030 10 16 0.00 0.00
8:28 am 08:28 Cloudy 45 7 43 6 93 93 WNW 5 7 30.39 1029 10 16 0.00 0.00
8:49 am 08:49 Cloudy 43 6 43 6 100 100 WNW 6 9 30.42 1030 10 16 0.00 0.00
8:53 am 08:53 Cloudy 44 6.7 42 5.6 93 93 WNW 7 11 30.43 1031 10 16 0.00 0.00
9:34 am 09:34 Cloudy 45 7 43 6 93 93 NW 6 9 30.42 1030 10 16 0.00 0.00
9:53 am 09:53 Cloudy 45 7.2 43 6.1 93 93 NW 5 7 30.45 1031 10 16 0.00 0.00
10:53 am 10:53 Cloudy 49 9.4 44 6.7 83 83 undefined N/A 30.44 1031 10 16 0.00 0.00
11:53 am 11:53 Cloudy 51 10.6 43 6.1 74 74 Calm 30.44 1031 10 16 0.00 0.00
12:22 pm 12:22 Partly Cloudy 52 11 43 6 72 72 Calm 30.39 1029 10 16 0.00 0.00
12:53 pm 12:53 Sunny 53 11.7 44 6.7 72 72 W 3 6 30.43 1031 10 16 0.00 0.00
1:53 pm 13:53 Sunny 55 12.8 44 6.7 67 67 WNW 6 9 30.41 1030 10 16 0.00 0.00
2:53 pm 14:53 Sunny 59 15 44 6.7 58 58 WSW 5 7 30.37 1029 10 16 0.00 0.00
3:53 pm 15:53 Sunny 63 17.2 41 5 45 45 undefined N/A 30.35 1028 10 16 0.00 0.00
4:53 pm 16:53 Sunny 64 17.8 42 5.6 45 45 VRB 6 9 30.33 1027 10 16 0.00 0.00
5:53 pm 17:53 Sunny 64 17.8 42 5.6 45 45 WSW 3 6 30.32 1027 10 16 0.00 0.00
6:53 pm 18:53 Sunny 65 18.3 43 6.1 45 45 WSW 3 6 30.30 1026 10 16 0.00 0.00
7:53 pm 19:53 Sunny 60 15.6 47 8.3 62 62 Calm 30.29 1026 10 16 0.00 0.00
8:53 pm 20:53 Clear 56 13.3 44 6.7 65 65 Calm 30.30 1026 10 16 0.00 0.00
9:53 pm 21:53 Clear 54 12.2 41 5 62 62 Calm 30.31 1027 10 16 0.00 0.00
10:53 pm 22:53 Clear 50 10 41 5 71 71 Calm 30.31 1027 10 16 0.00 0.00
11:53 pm 23:53 Clear 49 9.4 43 6.1 80 80 Calm 30.31 1026 10 16 0.00 0.00

Powered by Vaisala Xweather